Meridian, MS

4:39 PM CST on November 13, 2019 (GMT -0600)
Key

Weather History for KMEI - September, 2019

Change the Weather History Date:

Saturday, September 7, 2019

  Actual Average Record
Temperature  
Mean Temperature 85 °F 78 °F  
Max Temperature 99 °F 89 °F 101 °F (1990)
Min Temperature 71 °F 66 °F 48 °F (1988)
Degree Days  
Heating Degree Days 0 0  
Month to date heating degree days 0 0  
Since 1 July heating degree days 0 0  
Cooling Degree Days 20 13  
Month to date cooling degree days 128 93  
Year to date cooling degree days 2211 1713  
Growing Degree Days 35 (Base 50)    
Moisture  
Dew Point 72 °F    
Average Humidity 70    
Maximum Humidity 93    
Minimum Humidity 42    
Precipitation  
Precipitation 0.00 in 0.12 in 2.76 in (1974)
Month to date precipitation 0.00 0.80  
Year to date precipitation 42.95 39.76  
Sea Level Pressure  
Sea Level Pressure 29.96 in    
Wind  
Wind Speed 2 mph ()    
Max Wind Speed 12 mph    
Max Gust Speed 16 mph    
Visibility 9.3 miles    
Events      
T = Trace of Precipitation, MM = Missing Value Source: Averaged Metar Reports

Daily Weather History Graph

Daily Weather History Graph

Search for Another Location

Airport or City:

Astronomy

Sep. 07, 2019 Rise Set
Actual Time 6:33 AM CDT 7:11 PM CDT
Civil Twilight 6:08 AM CDT 7:36 PM CDT
Nautical Twilight 5:39 AM CDT 8:05 PM CDT
Astronomical Twilight 5:09 AM CDT 8:35 PM CDT
Moon 3:11 PM CDT (9/7) 12:40 AM CDT (9/7)
Length of Visible Light 13h 27m
Length of Day
12h 38m
Waxing Gibbous, 66% of the Moon is Illuminated
Sep 7
Waxing Gibbous
Sep 13
Full
Sep 21
Last Quarter
Sep 28
New
Oct 5
First Quarter

Hourly Weather History & Observations

Time (CDT) Temp. Heat Index Dew Point Humidity Pressure Visibility Wind Dir Wind Speed Gust Speed Precip Events Conditions
12:58 AM 73.0 °F - 70.0 °F 90% 29.97 in 10.0 mi Calm Calm - N/A   Clear
1:58 AM 73.0 °F - 69.1 °F 87% 29.97 in 9.0 mi Calm Calm - N/A   Clear
2:58 AM 73.0 °F - 69.1 °F 87% 29.96 in 7.0 mi Calm Calm - N/A   Clear
3:58 AM 72.0 °F - 68.0 °F 87% 29.97 in 8.0 mi SSW 3.5 mph - N/A   Clear
4:58 AM 72.0 °F - 69.1 °F 91% 29.97 in 6.0 mi Calm Calm - N/A   Clear
5:58 AM 71.1 °F - 68.0 °F 90% 29.98 in 8.0 mi Calm Calm - N/A   Clear
6:58 AM 72.0 °F - 68.0 °F 87% 30.00 in 6.0 mi Calm Calm - N/A   Clear
7:58 AM 75.9 °F - 71.1 °F 85% 30.01 in 10.0 mi Calm Calm - N/A   Clear
8:58 AM 82.9 °F 88.8 °F 73.0 °F 72% 30.01 in 10.0 mi Calm Calm - N/A   Clear
9:58 AM 91.0 °F 99.3 °F 73.0 °F 55% 30.01 in 10.0 mi North 5.8 mph - N/A   Clear
10:58 AM 93.9 °F 103.4 °F 73.0 °F 51% 30.00 in 10.0 mi NNW 6.9 mph - N/A   Clear
11:58 AM 96.1 °F 104.9 °F 72.0 °F 46% 29.98 in 10.0 mi Variable 4.6 mph - N/A   Clear
12:58 PM 95.0 °F 103.2 °F 72.0 °F 47% 29.97 in 10.0 mi North 4.6 mph - N/A   Scattered Clouds
1:58 PM 98.1 °F 107.2 °F 72.0 °F 43% 29.95 in 10.0 mi WNW 10.4 mph - N/A   Mostly Cloudy
2:58 PM 96.1 °F 104.9 °F 72.0 °F 46% 29.93 in 10.0 mi North 9.2 mph - N/A   Scattered Clouds
3:58 PM 98.1 °F 107.2 °F 72.0 °F 43% 29.92 in 10.0 mi North 10.4 mph - N/A   Mostly Cloudy
4:58 PM 97.0 °F 104.8 °F 71.1 °F 43% 29.91 in 10.0 mi WNW 6.9 mph - N/A   Clear
5:58 PM 95.0 °F 104.5 °F 73.0 °F 49% 29.92 in 10.0 mi NW 5.8 mph - N/A   Clear
6:58 PM 88.0 °F 98.5 °F 75.9 °F 67% 29.93 in 10.0 mi NW 3.5 mph - N/A   Clear
7:58 PM 84.0 °F 92.6 °F 75.9 °F 76% 29.94 in 10.0 mi Calm Calm - N/A   Clear
8:58 PM 81.0 °F 87.3 °F 75.9 °F 85% 29.94 in 10.0 mi Calm Calm - N/A   Clear
9:58 PM 80.1 °F 85.1 °F 75.0 °F 85% 29.96 in 10.0 mi Calm Calm - N/A   Clear
10:58 PM 79.0 °F - 75.0 °F 88% 29.96 in 9.0 mi Calm Calm - N/A   Clear